Location: Asheville, NC
(35.6000°N, 82.5500°W)
Time: 20:10:49
(UTC-04:00)

Vanguard 2 Rocket - Pass Details

Date: 13 December 2017
Orbit: 553 x 3328 km, 32.9° (Epoch: 24 April)

Event Time Altitude Azimuth Distance (km) Brightness Sun altitude
Rises 01:08:01 0° 283° (WNW) 6,813 - -74.4°
Reaches altitude 10° 01:12:19 10° 280° (W) 6,006 - -73.8°
Maximum altitude 01:31:39 59° 208° (SSW) 3,607 - -70.8°
Exits shadow 01:47:45 13° 135° (SE) 5,192 10.7 -68.1°
Drops below altitude 10° 01:48:47 10° 134° (SE) 5,383 10.8 -67.9°
Sets 01:52:25 0° 130° (SE) 6,099 11.2 -67.2°
